Location: Newark
(7.0858°N, 171.3717°E)
Time: 11:50:38
(UTC+00:00)

Vanguard 1 Rocket - Pass Details

Date: 01 December 2020
Orbit: 655 x 4222 km, 34.3° (Epoch: 23 January)

Event Time Altitude Azimuth Distance (km) Brightness Sun altitude
Exits shadow 17:00:48 16° 321° (NW) 6,172 11.1 -21.9°
Maximum altitude 17:12:40 26° 2° (N) 4,482 10.7 -19.1°
Drops below altitude 10° 17:23:28 10° 55° (NE) 4,491 11.4 -16.6°
Sets 17:27:08 0° 68° (ENE) 5,016 12.0 -15.8°
